Flag for U.S.A. Weather past 2 weeks in Tallahassee, Florida, U.S.A.

Now
71 °F

Mostly cloudy.


Feels Like: 76 °F
Forecast: 49 / 73 °F
Wind: 15 mph from East

Location: Tallahassee Regional Airport


UV Index: 0 (Low)

Visibility: 10 mi


Pressure: 30.19 "Hg

Humidity: 57%

Dew point: 55 °F

Location of TallahasseeLocation

Historic Weather in Tallahassee

°F

Tallahassee temperature yesterday

Maximum temperature yesterday: 70 °F (at 4:53 PM)
Minimum temperature yesterday: 43 °F (at 6:53 AM)
Average temperature yesterday: 56 °F

Past Weeks' High & Low Weather Summary

 TemperatureHumidityPressure
High85 °F (Apr 4, 3:53 PM)94% (Apr 3, 7:58 AM)30.30 "Hg (Apr 3, 7:58 AM)
Low43 °F (Apr 10, 6:53 AM)24% (Apr 10, 1:53 PM)29.73 "Hg (Apr 7, 3:53 PM)
Average67 °F67%30.03 "Hg
* Reported Apr 2 3:53 PM — Apr 17 3:53 PM, Tallahassee, Weather by CustomWeather, © 2014

Note: Actual official high and low records may vary slightly from our data, if they occured in-between our weather recording intervals... More about our weather records

Advertising

Historic Weather Conditions — Data for Previous 24 hours

 ConditionsComfort  
Time TempWeatherWind HumidityBarometerVisibility
3:53 PM
Apr 17
73 °FPartly sunny.15 mph51%30.20 "Hg10 mi
2:53 PM73 °FPartly sunny.15 mph51%30.22 "Hg10 mi
1:53 PM72 °FPartly sunny.17 mph52%30.24 "Hg10 mi
12:53 PM71 °FScattered clouds.14 mph53%30.26 "Hg10 mi
11:53 AM68 °FPassing clouds.12 mph57%30.28 "Hg10 mi
10:53 AM65 °FPartly sunny.14 mph61%30.29 "Hg10 mi
9:53 AM62 °FPartly sunny.10 mph65%30.28 "Hg10 mi
8:53 AM58 °FScattered clouds.12 mph67%30.27 "Hg10 mi
7:53 AM55 °FPassing clouds.7 mph72%30.25 "Hg10 mi
6:53 AM54 °FPassing clouds.7 mph74%30.23 "Hg10 mi
5:53 AM54 °FOvercast.7 mph74%30.21 "Hg10 mi
4:53 AM54 °FPassing clouds.9 mph72%30.21 "Hg10 mi
3:53 AM54 °FPassing clouds.9 mph69%30.21 "Hg10 mi
2:53 AM54 °FPassing clouds.8 mph69%30.22 "Hg10 mi
1:53 AM55 °FClear.10 mph69%30.23 "Hg10 mi
12:53 AM56 °FClear.9 mph70%30.23 "Hg10 mi
11:53 PM
Apr 16
57 °FClear.8 mph67%30.22 "Hg10 mi
10:53 PM58 °FPassing clouds.9 mph60%30.22 "Hg10 mi
9:53 PM60 °FPassing clouds.8 mph53%30.20 "Hg10 mi
8:53 PM61 °FPassing clouds.10 mph54%30.18 "Hg10 mi
7:53 PM65 °FPassing clouds.10 mph45%30.15 "Hg10 mi
6:53 PM68 °FPassing clouds.13 mph39%30.14 "Hg10 mi
5:53 PM70 °FSunny.10 mph37%30.14 "Hg10 mi
Weather by CustomWeather, © 2014

See weather overview